Regional Weather Roundup
Issued by NWS Newport/Morehead, NC

Current Version | Previous Version | Text Only | Print | Product List | Glossary Off
Versions: 1 2 3 4 5 6 7 8 9 10 11 12 13 14 15 16 17 18 19 20 21 22 23 24 25 26 27 28 29 30 31 32 33 34 35 36 37 38 39 40 41 42 43 44 45 46 47 48 49 50
000 ASUS42 KMHX 241225 RWRMHX WEATHER ROUNDUP FOR EASTERN NORTH CAROLINA NATIONAL WEATHER SERVICE NEWPORT/MOREHEAD CITY NC 800 AM EDT SAT SEP 24 2016 NOTE: "FAIR" INDICATES FEW OR NO CLOUDS BELOW 12,000 FEET WITH NO SIGNIFICANT WEATHER AND/OR OBSTRUCTIONS TO VISIBILITY NCZ015>017-031-032-045>047-102-103-241300- NORTH COAST CITY SKY/WX TMP DP RH WIND PRES REMARKS EDENTON DRZL/FOG 72 72 100 NW3 30.05R VSB<1/4 ELIZABETH CITY FOG 68 68 100 W3 30.04R VSB<1/4 KITTY HAWK NOT AVBL MANTEO SUNNY 73 71 91 N3 30.04R $$ NCZ045>047-081-094-103-104-241300- CENTRAL COAST CITY SKY/WX TMP DP RH WIND PRES REMARKS FRISCO PTSUNNY 76 71 85 VRB6 30.03R $$ NCZ095-097-098-100-101-241300- SOUTHERN COAST CITY SKY/WX TMP DP RH WIND PRES REMARKS BEAUFORT SUNNY 75 72 90 N5 30.03R CEDAR ISLAND NOT AVBL JACKSONVILLE FOG 71 70 96 CALM 30.03R VSB<1/4 PINEY ISLAND SUNNY N/A N/A N/A N6 30.02R WILMINGTON FOG 71 71 100 NE6 30.04R VSB 1/4 $$ NCZ011>013-027>030-043-044-078>080-089-090>093-098-241300- COASTAL PLAIN CITY SKY/WX TMP DP RH WIND PRES REMARKS AHOSKIE SUNNY 66 66 99 CALM 30.05R CLINTON PTSUNNY 68 68 100 CALM 30.06R FOG ELIZABETHTOWN SUNNY 70 70 100 CALM 30.06R GOLDSBORO SUNNY 68 68 99 NW3 30.03R GREENVILLE HVY RAIN 68 68 100 CALM 30.07R VSB 1/4 HAVELOCK MOSUNNY 73 72 96 CALM 30.04R FOG KENANSVILLE SUNNY 68 68 100 CALM 30.06R FOG KINSTON FOG 68 68 100 CALM 30.06R VSB 1/4 NEW BERN SUNNY 71 70 96 CALM 30.05R RICHLANDS MOSUNNY 72 72 100 CALM 30.05R ROCKY MOUNT SUNNY 66 66 100 CALM 30.06R WASHINGTON FOG 67 67 99 CALM 30.05R VSB<1/4 WHITEVILLE SUNNY 70 69 96 CALM 30.06R $$ AMZ130-135-150-152-154-156-158-170-250-252-270-ANZ085-086-088-633-658-670-241300- MARINE OBSERVATIONS STATION/POSITION TIME TEMP WIND PRES WAVE SWELL AIR SEA DIR/SP/G HT/PER HT/PER (UTC) (F) (DEG/KT/KT) (MB) (FT/S) (FT/S) CHESAPEAKE LIGHT NOT AVBL 64 E VA BEACH 1150 74 76 330/ 6/ 8 1016.2 3/11 3/11 DUCK 1200 73 77 320/ 7/ 9 1016.3 2 E DUCK 1141 76 N/A 3/11 2/11 OREGON INLET 1200 74 80 340/ 4/ 6 1016.7 13E OREGON INLT 1130 77 N/A 4/11 5/11 HATTERAS CG 1200 76 81 360/ 9/ 11 1016.5 DIAMOND BUOY 1150 76 81 20/ 10/ 12 1016.2 5/10 5/10 CAPE LOOKOUT 1200 77 20/ 8/ 9 1016.3 BEAUFORT LAB 1200 75 79 20/ 5/ 6 1016.2 30 SE NEW RVR IN 1208 79 82 30/ 12/ 14 1016.5 30 SE NEW RVR IN 1125 82 N/A 4/11 2/11 27 SE WRIGHTSVLE 1208 80 81 40/ 12/ 16 1016.8 5 SE WRIGHTSVLE 1108 78 81 50/ 10/ 14 1017.3 225 S CAPE HAT 1150 81 83 270/ 8/ 10 1016.1 5/10 5/10 41 SE CHARLESTON 1150 80 82 340/ 6/ 8 1016.0 3/11 3/11 $$

USA.gov is the U.S. government's official web portal to all federal, state and local government web resources and services.